DW2004 Weather Reports


Display with metric or nautical units.
time (UTC)temp
F
wind
direction
speed
MPH
gust
MPH
rain 1hr
in
rain 24hr
in
rain mn
in
humidity
%
barometer
mb
20240526060010 83 108 1.0 9.0 0.00 0.01 0.00 59 1004.6
20240526055504 83 216 1.0 9.0 0.00 0.01 0.00 59 1004.7
20240526055004 83 223 1.0 12.0 0.00 0.01 0.00 59 1004.7
20240526054508 84 161 1.0 12.0 0.00 0.01 0.00 59 1004.9
20240526053504 84 159 1.0 8.0 0.00 0.01 0.00 59 1005.2
20240526053008 84 161 1.0 8.0 0.00 0.01 0.00 60 1005.3
20240526052504 84 99 1.0 4.0 0.00 0.01 0.00 60 1005.4
20240526052004 85 98 0.0 4.0 0.00 0.01 0.00 60 1005.5
20240526051507 85 65 0.0 9.0 0.00 0.01 0.00 60 1005.6
20240526051004 85 84 0.0 9.0 0.00 0.01 0.00 60 1005.7
20240526050503 85 187 0.0 2.0 0.00 0.01 0.00 60 1005.6
20240526050012 85 187 0.0 9.0 0.00 0.01 0.00 60 1005.5
20240526045504 85 187 0.0 9.0 0.00 0.01 0.01 60 1005.4
20240526045004 85 200 0.0 10.0 0.00 0.01 0.01 59 1005.3
20240526043504 85 196 2.0 11.0 0.00 0.01 0.01 59 1005.4
20240526043007 85 225 2.0 13.0 0.00 0.01 0.01 58 1005.1
20240526042504 85 238 4.0 13.0 0.00 0.01 0.01 57 1004.7
20240526042004 84 236 3.0 12.0 0.00 0.01 0.01 55 1004.5
20240526041004 84 198 4.0 12.0 0.00 0.01 0.01 50 1004.3
20240526040504 84 212 2.0 15.0 0.00 0.01 0.01 49 1003.9
20240526040009 84 217 2.0 12.0 0.00 0.01 0.01 49 1003.4
20240526035504 84 256 1.0 12.0 0.00 0.01 0.01 49 1002.8
20240526035004 84 211 3.0 15.0 0.00 0.01 0.01 49 1002.1
20240526034507 84 178 4.0 15.0 0.00 0.01 0.01 49 1002.3
20240526034004 84 172 2.0 13.0 0.00 0.01 0.01 49 1002.7
20240526033504 84 128 3.0 10.0 0.00 0.01 0.01 49 1002.3
20240526033008 84 138 2.0 11.0 0.00 0.01 0.01 49 1003.0
20240526032504 84 163 3.0 9.0 0.00 0.01 0.01 48 1003.0
20240526032004 84 121 1.0 9.0 0.00 0.01 0.01 48 1003.1
20240526031507 84 95 1.0 8.0 0.00 0.01 0.01 48 1003.8
20240526031004 84 163 1.0 7.0 0.00 0.01 0.01 48 1004.0
20240526030505 84 139 0.0 7.0 0.00 0.01 0.01 48 1004.0
20240526030011 84 130 1.0 9.0 0.00 0.01 0.01 48 1003.8
20240526025504 84 186 1.0 12.0 0.00 0.01 0.01 48 1002.9
20240526025003 84 202 3.0 12.0 0.00 0.01 0.01 48 1002.6
20240526024507 84 132 3.0 11.0 0.00 0.01 0.01 48 1002.9
20240526024004 84 169 1.0 9.0 0.00 0.01 0.01 48 1003.5
20240526023503 84 169 1.0 12.0 0.00 0.01 0.01 48 1003.7
20240526023007 84 165 1.0 11.0 0.00 0.01 0.01 48 1003.9
20240526022004 84 133 1.0 9.0 0.00 0.01 0.01 48 1004.0
20240526021508 84 138 1.0 9.0 0.00 0.01 0.01 48 1003.9
20240526021004 85 141 1.0 11.0 0.00 0.01 0.01 48 1004.0
20240526020505 84 141 1.0 13.0 0.00 0.01 0.01 48 1003.7
20240526020009 84 136 1.0 13.0 0.00 0.01 0.01 48 1003.5
20240526015502 85 155 0.0 8.0 0.00 0.01 0.01 48 1003.6
20240526014507 85 157 1.0 10.0 0.00 0.01 0.01 47 1004.0
20240526014003 85 157 0.0 10.0 0.00 0.01 0.01 47 1004.5
20240526013503 85 154 0.0 9.0 0.00 0.01 0.01 47 1004.1
20240526013007 85 154 1.0 5.0 0.00 0.01 0.01 47 1003.8
20240526012503 85 154 0.0 7.0 0.00 0.01 0.01 47 1003.8
20240526012002 85 155 1.0 7.0 0.00 0.01 0.01 48 1003.9
20240526011506 85 155 1.0 10.0 0.00 0.01 0.01 48 1003.7
20240526011002 85 155 1.0 10.0 0.00 0.01 0.01 48 1003.6
20240526010008 85 159 1.0 7.0 0.00 0.01 0.01 48 1003.8
20240526005502 85 162 1.0 10.0 0.00 0.01 0.01 48 1004.0
20240526005004 85 161 1.0 10.0 0.00 0.01 0.01 48 1004.0
20240526004507 85 160 1.0 10.0 0.00 0.01 0.01 48 1004.1
20240526004003 86 159 1.0 10.0 0.00 0.01 0.01 48 1004.1
20240526003503 86 155 1.0 14.0 0.00 0.01 0.01 48 1003.8
20240526003006 86 160 1.0 9.0 0.00 0.01 0.01 47 1003.6
20240526002503 86 159 1.0 9.0 0.00 0.01 0.01 47 1003.7
20240526001002 86 157 0.0 9.0 0.00 0.01 0.01 46 1003.9
20240526000009 86 159 1.0 9.0 0.00 0.01 0.01 46 1004.0
20240525235002 85 153 0.0 3.0 0.00 0.09 0.01 44 1004.8
20240525234507 85 153 1.0 8.0 0.00 0.09 0.01 44 1005.0
20240525234003 85 153 1.0 8.0 0.00 0.09 0.01 44 1004.7
20240525233503 85 148 1.0 8.0 0.00 0.09 0.01 44 1004.5
20240525232503 85 148 0.0 6.0 0.00 0.09 0.01 43 1004.3
20240525232003 85 148 0.0 5.0 0.00 0.09 0.01 43 1004.2
20240525231506 85 148 1.0 5.0 0.00 0.09 0.01 43 1004.2
20240525231003 85 151 0.0 3.0 0.00 0.09 0.01 43 1004.3
20240525230503 84 151 0.0 5.0 0.00 0.09 0.01 43 1004.6
20240525230009 84 151 0.0 6.0 0.00 0.09 0.01 43 1004.7
20240525225501 84 150 0.0 6.0 0.00 0.23 0.01 43 1004.9
20240525225002 84 151 0.0 7.0 0.00 0.23 0.01 43 1005.0
20240525224505 84 151 1.0 7.0 0.00 0.23 0.01 43 1004.8
20240525224001 84 149 0.0 7.0 0.00 0.23 0.01 43 1004.7
20240525223503 84 149 0.0 7.0 0.00 0.23 0.01 44 1004.9
20240525222002 84 149 0.0 5.0 0.00 0.23 0.01 45 1004.4
20240525221505 84 150 1.0 5.0 0.00 0.23 0.01 45 1004.5
20240525221002 84 150 1.0 7.0 0.00 0.23 0.01 45 1005.1
20240525220501 84 149 1.0 7.0 0.00 0.23 0.01 45 1005.0
20240525220007 84 149 0.0 7.0 0.00 0.23 0.01 45 1005.0
20240525215501 84 149 1.0 7.0 0.00 0.23 0.01 45 1005.2
20240525215001 84 149 0.0 5.0 0.00 0.23 0.01 46 1005.1
20240525214507 84 149 0.0 3.0 0.00 0.23 0.01 47 1005.2
20240525214001 85 149 0.0 3.0 0.00 0.23 0.01 47 1005.3
20240525213502 85 149 0.0 5.0 0.00 0.23 0.01 48 1005.2
20240525212502 85 149 0.0 2.0 0.00 0.23 0.01 50 1005.3
20240525212001 86 149 0.0 3.0 0.00 0.23 0.01 50 1005.5
20240525211506 86 149 0.0 3.0 0.00 0.23 0.01 50 1005.8
20240525211002 86 149 0.0 5.0 0.00 0.23 0.01 51 1006.0
20240525210502 86 149 0.0 6.0 0.00 0.23 0.01 51 1005.8
20240525210009 86 149 1.0 5.0 0.00 0.23 0.01 52 1005.8
20240525205502 87 149 1.0 8.0 0.00 0.23 0.01 53 1005.6
20240525204506 87 149 1.0 9.0 0.00 0.23 0.01 52 1005.6
20240525204002 87 149 2.0 10.0 0.00 0.23 0.01 54 1005.5
20240525203501 87 150 1.0 10.0 0.00 0.23 0.01 54 1005.6
20240525203005 87 153 2.0 8.0 0.00 0.23 0.01 54 1005.6
20240525202502 87 157 2.0 8.0 0.00 0.23 0.01 54 1005.8
20240525202002 87 159 0.0 10.0 0.00 0.23 0.01 53 1005.7
20240525201506 87 157 1.0 10.0 0.00 0.23 0.01 53 1005.9
20240525201002 87 155 2.0 10.0 0.00 0.23 0.01 54 1006.3
20240525200502 87 161 2.0 9.0 0.00 0.23 0.01 53 1006.3
20240525195501 87 163 2.0 8.0 0.00 0.23 0.01 53 1006.7
20240525195001 87 167 0.0 6.0 0.00 0.23 0.01 51 1006.8
20240525194506 87 167 0.0 8.0 0.00 0.23 0.01 49 1007.0
20240525194002 86 167 0.0 8.0 0.00 0.23 0.01 50 1007.1
20240525192502 85 169 1.0 6.0 0.00 0.23 0.01 49 1007.4
20240525192002 85 169 1.0 6.0 0.00 0.23 0.01 50 1007.5
20240525191505 85 171 0.0 8.0 0.00 0.23 0.01 49 1007.6
20240525191002 85 171 0.0 8.0 0.00 0.23 0.01 48 1007.7
20240525190502 85 167 1.0 7.0 0.00 0.23 0.01 47 1007.8
20240525190008 84 172 1.0 7.0 0.00 0.23 0.01 47 1007.8
20240525185502 84 167 1.0 7.0 0.00 0.23 0.01 46 1007.9
20240525185001 84 167 2.0 7.0 0.00 0.23 0.01 46 1008.0
20240525184506 83 170 0.0 8.0 0.00 0.23 0.01 45 1008.0
20240525183502 83 169 2.0 7.0 0.00 0.23 0.01 44 1008.2
20240525182504 83 179 1.0 8.0 0.00 0.23 0.01 43 1008.4
20240525182001 83 184 1.0 6.0 0.00 0.23 0.01 43 1008.4
20240525181506 83 185 1.0 7.0 0.00 0.23 0.01 42 1008.5
20240525181001 82 185 1.0 7.0 0.00 0.23 0.01 42 1008.6
20240525180006 82 182 1.0 8.0 0.00 0.23 0.01 40 1008.9
20240525175501 82 178 0.0 6.0 0.00 0.23 0.01 41 1008.9
20240525175001 81 178 1.0 6.0 0.00 0.23 0.01 41 1009.0
20240525174505 82 178 0.0 2.0 0.00 0.23 0.01 40 1009.0
20240525174001 81 178 0.0 4.0 0.00 0.23 0.01 39 1009.1
20240525173501 81 178 0.0 4.0 0.00 0.23 0.01 39 1009.1
20240525173004 80 178 1.0 4.0 0.00 0.23 0.01 38 1009.2
20240525172500 80 181 0.0 4.0 0.00 0.23 0.01 39 1009.2
20240525172000 80 181 0.0 2.0 0.00 0.23 0.01 38 1009.3
20240525171504 80 181 0.0 4.0 0.00 0.23 0.01 37 1009.4
20240525171000 79 180 1.0 4.0 0.00 0.23 0.01 38 1009.5
20240525170501 79 181 0.0 5.0 0.00 0.23 0.01 37 1009.5
20240525170005 79 182 0.0 5.0 0.00 0.23 0.01 38 1009.5
20240525165500 79 182 0.0 6.0 0.00 0.23 0.01 37 1009.5
20240525164505 79 182 1.0 5.0 0.00 0.23 0.01 38 1009.7
20240525164001 79 182 0.0 7.0 0.00 0.23 0.01 37 1009.7
20240525163500 79 179 0.0 5.0 0.00 0.23 0.01 36 1009.7
20240525163005 78 179 0.0 5.0 0.00 0.23 0.01 36 1009.8
20240525162502 78 178 0.0 9.0 0.00 0.23 0.01 36 1009.9
20240525162000 78 178 1.0 9.0 0.00 0.23 0.01 36 1009.9
20240525161504 78 180 1.0 8.0 0.00 0.23 0.01 36 1010.0
20240525160500 77 190 0.0 1.0 0.00 0.23 0.01 35 1010.1
20240525160005 77 190 0.0 6.0 0.00 0.23 0.01 35 1010.1
20240525155501 76 190 1.0 6.0 0.00 0.23 0.01 35 1010.2
20240525155001 76 190 0.0 6.0 0.00 0.23 0.01 35 1010.2
20240525154504 76 190 1.0 6.0 0.00 0.23 0.01 35 1010.3
20240525154002 76 190 0.0 4.0 0.00 0.23 0.01 34 1010.3
20240525153004 76 190 0.0 2.0 0.00 0.23 0.01 35 1010.4
20240525152502 75 190 0.0 4.0 0.00 0.23 0.01 35 1010.4
20240525151506 75 190 0.0 7.0 0.00 0.23 0.01 35 1010.5
20240525151000 75 190 0.0 3.0 0.00 0.23 0.01 35 1010.5
20240525150500 75 190 0.0 6.0 0.00 0.23 0.01 35 1010.5
20240525145501 75 190 0.0 5.0 0.00 0.23 0.01 35 1010.6
20240525144505 75 190 0.0 4.0 0.00 0.23 0.01 35 1010.8
20240525144000 75 190 0.0 0.0 0.00 0.23 0.01 35 1010.8
20240525143004 74 190 0.0 0.0 0.00 0.23 0.01 34 1010.7
20240525142500 74 190 0.0 6.0 0.00 0.23 0.01 34 1010.6
20240525142000 74 190 0.0 6.0 0.00 0.23 0.01 34 1010.6
20240525141504 74 190 0.0 3.0 0.00 0.23 0.01 33 1010.6
20240525141001 74 190 0.0 0.0 0.00 0.23 0.01 33 1010.6
20240525140500 74 190 0.0 0.0 0.00 0.23 0.01 33 1010.5
20240525134505 73 190 0.0 0.0 0.00 0.23 0.01 33 1010.3
20240525134000 73 190 0.0 0.0 0.00 0.23 0.01 32 1010.3
20240525133501 73 190 0.0 0.0 0.00 0.23 0.01 32 1010.3
20240525133004 73 190 0.0 0.0 0.00 0.23 0.01 32 1010.2
20240525132500 73 190 0.0 0.0 0.00 0.23 0.01 32 1010.2
20240525132001 73 190 0.0 0.0 0.00 0.23 0.01 32 1010.1
20240525131504 73 190 0.0 0.0 0.00 0.23 0.01 32 1010.0
20240525131000 73 190 0.0 1.0 0.00 0.23 0.01 32 1010.0
20240525130500 73 190 0.0 1.0 0.00 0.23 0.01 32 1010.0
20240525130006 73 190 0.0 0.0 0.00 0.23 0.01 32 1010.0
20240525124959 72 190 0.0 3.0 0.00 0.23 0.01 32 1009.9
20240525124502 72 190 0.0 3.0 0.00 0.23 0.01 32 1009.9
20240525123959 72 190 0.0 0.0 0.00 0.23 0.01 32 1009.9
20240525123459 72 190 0.0 0.0 0.00 0.23 0.01 32 1009.8
20240525123004 72 190 0.0 0.0 0.00 0.23 0.01 32 1009.7
20240525122501 72 190 0.0 0.0 0.01 0.23 0.01 32 1009.7
20240525121959 72 190 0.0 0.0 0.01 0.23 0.01 32 1009.6
20240525121504 72 190 0.0 0.0 0.01 0.23 0.01 32 1009.5
20240525120959 71 190 0.0 0.0 0.01 0.23 0.01 32 1009.4
20240525120459 71 190 0.0 0.0 0.01 0.23 0.01 33 1009.4
20240525120005 71 190 0.0 0.0 0.01 0.23 0.01 33 1009.4
20240525115459 71 190 0.0 0.0 0.01 0.23 0.01 33 1009.3
20240525114959 71 190 0.0 0.0 0.01 0.23 0.01 33 1009.2
20240525113959 71 190 0.0 0.0 0.01 0.23 0.01 33 1009.1
20240525113459 71 190 0.0 0.0 0.01 0.23 0.01 33 1009.1
20240525113003 70 190 0.0 0.0 0.01 0.23 0.01 33 1009.1
20240525112459 69 190 0.0 0.0 0.00 0.22 0.00 34 1009.0
20240525111959 69 190 0.0 0.0 0.00 0.22 0.00 34 1009.1
20240525111002 69 190 0.0 0.0 0.00 0.22 0.00 34 1009.0
20240525105500 69 190 0.0 0.0 0.00 0.22 0.00 34 1008.9
20240525104959 69 190 0.0 0.0 0.00 0.22 0.00 34 1008.9
20240525104503 69 190 0.0 0.0 0.00 0.22 0.00 35 1008.8
20240525104000 69 190 0.0 0.0 0.00 0.22 0.00 34 1008.7
20240525103500 69 190 0.0 0.0 0.00 0.22 0.00 35 1008.7
20240525102459 69 190 0.0 0.0 0.00 0.22 0.00 35 1008.6
20240525101503 70 190 0.0 0.0 0.00 0.22 0.00 35 1008.6
20240525100459 69 190 0.0 0.0 0.00 0.22 0.00 35 1008.5
20240525094502 70 190 0.0 0.0 0.00 0.22 0.00 35 1008.6
20240525093959 70 190 0.0 0.0 0.00 0.22 0.00 35 1008.6
20240525093458 70 190 0.0 0.0 0.00 0.22 0.00 35 1008.6
20240525093002 70 190 0.0 0.0 0.00 0.22 0.00 35 1008.6
20240525092500 70 190 0.0 0.0 0.00 0.22 0.00 35 1008.5
20240525091959 70 190 0.0 0.0 0.00 0.22 0.00 35 1008.4
20240525091503 70 190 0.0 0.0 0.00 0.22 0.00 35 1008.4
20240525090958 70 190 0.0 0.0 0.00 0.22 0.00 35 1008.4
20240525090459 70 190 0.0 0.0 0.00 0.22 0.00 35 1008.5
20240525090004 70 190 0.0 0.0 0.00 0.22 0.00 35 1008.5
20240525085459 70 190 0.0 0.0 0.00 0.22 0.00 35 1008.4
20240525084959 71 190 0.0 0.0 0.00 0.22 0.00 35 1008.4
20240525084503 71 190 0.0 0.0 0.00 0.22 0.00 35 1008.5
20240525083958 71 190 0.0 0.0 0.00 0.22 0.00 35 1008.5
20240525083458 71 190 0.0 0.0 0.00 0.22 0.00 35 1008.4
20240525083003 70 190 0.0 0.0 0.00 0.22 0.00 35 1008.4
20240525082458 70 190 0.0 0.0 0.00 0.22 0.00 36 1008.5
20240525081959 70 190 0.0 0.0 0.00 0.22 0.00 36 1008.6
20240525081503 70 190 0.0 0.0 0.00 0.22 0.00 36 1008.5
20240525080959 70 190 0.0 0.0 0.00 0.22 0.00 36 1008.6
20240525080459 70 190 0.0 0.0 0.00 0.22 0.00 36 1008.6
20240525075459 71 190 0.0 0.0 0.00 0.22 0.00 36 1008.6
20240525074958 71 190 0.0 0.0 0.00 0.22 0.00 36 1008.5
20240525074501 71 190 0.0 0.0 0.00 0.22 0.00 36 1008.5
20240525073958 71 190 0.0 0.0 0.00 0.22 0.00 36 1008.6
20240525073458 71 190 0.0 0.0 0.00 0.22 0.00 36 1008.6
20240525073003 71 190 0.0 0.0 0.00 0.22 0.00 36 1008.7
20240525072458 71 190 0.0 0.0 0.00 0.22 0.00 37 1008.8
20240525071959 71 190 0.0 0.0 0.00 0.22 0.00 37 1008.8
20240525071502 71 190 0.0 0.0 0.00 0.22 0.00 37 1009.0
20240525070959 71 190 0.0 0.0 0.00 0.22 0.00 37 1009.0
20240525070458 71 190 0.0 0.0 0.00 0.22 0.00 37 1009.1
20240525065459 71 190 0.0 0.0 0.00 0.22 0.00 38 1009.3
20240525064958 71 190 0.0 0.0 0.00 0.22 0.00 38 1009.3
20240525064501 72 190 0.0 0.0 0.00 0.22 0.00 38 1009.1
20240525063459 72 190 0.0 0.0 0.00 0.22 0.00 38 1009.2
20240525062459 72 190 0.0 0.0 0.00 0.22 0.00 38 1009.4
20240525061502 72 190 0.0 0.0 0.00 0.22 0.00 38 1009.7
20240525060959 72 190 0.0 0.0 0.00 0.22 0.00 39 1009.7
20240525060458 72 190 0.0 0.0 0.00 0.22 0.00 39 1009.7